Year,Month,Day,Hour,Minute,Value (Times are PST for temperature in C)
2010,08,14,00,00,21.60
2010,08,14,00,01,21.60
2010,08,14,00,02,21.70
2010,08,14,00,03,21.70
2010,08,14,00,04,21.80
2010,08,14,00,05,21.80
2010,08,14,00,06,21.80
2010,08,14,00,07,21.80
2010,08,14,00,08,21.70
2010,08,14,00,09,21.70
2010,08,14,00,10,21.80
2010,08,14,00,11,21.80
2010,08,14,00,12,21.90
2010,08,14,00,13,21.90
2010,08,14,00,14,21.90
2010,08,14,00,15,22.00
2010,08,14,00,16,22.00
2010,08,14,00,17,22.10
2010,08,14,00,18,22.00
2010,08,14,00,19,22.00
2010,08,14,00,20,22.10
2010,08,14,00,21,22.10
2010,08,14,00,22,22.20
2010,08,14,00,23,22.20
2010,08,14,00,24,22.20
2010,08,14,00,25,22.10
2010,08,14,00,26,22.10
2010,08,14,00,27,22.00
2010,08,14,00,28,22.00
2010,08,14,00,29,22.00
2010,08,14,00,30,22.00
2010,08,14,00,31,21.90
2010,08,14,00,32,21.90
2010,08,14,00,33,21.90
2010,08,14,00,34,21.80
2010,08,14,00,35,21.80
2010,08,14,00,36,21.70
2010,08,14,00,37,21.70
2010,08,14,00,38,21.60
2010,08,14,00,39,21.60
2010,08,14,00,40,21.60
2010,08,14,00,41,21.60
2010,08,14,00,42,21.60
2010,08,14,00,43,21.60
2010,08,14,00,44,21.60
2010,08,14,00,45,21.50
2010,08,14,00,46,21.40
2010,08,14,00,47,21.40
2010,08,14,00,48,21.40
2010,08,14,00,49,21.40
2010,08,14,00,50,21.40
2010,08,14,00,51,21.30
2010,08,14,00,52,21.30
2010,08,14,00,53,21.30
2010,08,14,00,54,21.30
2010,08,14,00,55,21.30
2010,08,14,00,56,21.30
2010,08,14,00,57,21.20
2010,08,14,00,58,21.20
2010,08,14,00,59,21.10
2010,08,14,01,00,21.10
2010,08,14,01,01,21.00
2010,08,14,01,02,21.00
2010,08,14,01,03,21.00
2010,08,14,01,04,20.90
2010,08,14,01,05,20.90
2010,08,14,01,06,20.90
2010,08,14,01,07,20.90
2010,08,14,01,08,20.80
2010,08,14,01,09,20.80
2010,08,14,01,10,20.80
2010,08,14,01,11,20.80
2010,08,14,01,12,20.70
2010,08,14,01,13,20.70
2010,08,14,01,14,20.70
2010,08,14,01,15,20.70
2010,08,14,01,16,20.70
2010,08,14,01,17,20.60
2010,08,14,01,18,20.60
2010,08,14,01,19,20.50
2010,08,14,01,20,20.50
2010,08,14,01,21,20.40
2010,08,14,01,22,20.40
2010,08,14,01,23,20.30
2010,08,14,01,24,20.20
2010,08,14,01,25,20.20
2010,08,14,01,26,20.20
2010,08,14,01,27,20.10
2010,08,14,01,28,20.10
2010,08,14,01,29,20.10
2010,08,14,01,30,20.10
2010,08,14,01,31,20.10
2010,08,14,01,32,20.10
2010,08,14,01,33,20.00
2010,08,14,01,34,19.90
2010,08,14,01,35,19.90
2010,08,14,01,36,19.90
2010,08,14,01,37,19.90
2010,08,14,01,38,19.90
2010,08,14,01,39,19.80
2010,08,14,01,40,19.80
2010,08,14,01,41,19.70
2010,08,14,01,42,19.70
2010,08,14,01,43,19.60
2010,08,14,01,44,19.50
2010,08,14,01,45,19.40
2010,08,14,01,46,19.40
2010,08,14,01,47,19.30
2010,08,14,01,48,19.30
2010,08,14,01,49,19.20
2010,08,14,01,50,19.20
2010,08,14,01,51,19.20
2010,08,14,01,52,19.10
2010,08,14,01,53,19.10
2010,08,14,01,54,19.10
2010,08,14,01,55,19.10
2010,08,14,01,56,19.00
2010,08,14,01,57,18.90
2010,08,14,01,58,18.90
2010,08,14,01,59,18.90
2010,08,14,02,00,18.90
2010,08,14,02,01,18.90
2010,08,14,02,02,18.90
2010,08,14,02,03,18.90
2010,08,14,02,04,18.90
2010,08,14,02,05,18.90
2010,08,14,02,06,18.90
2010,08,14,02,07,18.90
2010,08,14,02,08,18.80
2010,08,14,02,09,18.70
2010,08,14,02,10,18.70
2010,08,14,02,11,18.70
2010,08,14,02,12,18.60
2010,08,14,02,13,18.60
2010,08,14,02,14,18.60
2010,08,14,02,15,18.60
2010,08,14,02,16,18.60
2010,08,14,02,17,18.60
2010,08,14,02,18,18.50
2010,08,14,02,19,18.50
2010,08,14,02,20,18.40
2010,08,14,02,21,18.40
2010,08,14,02,22,18.30
2010,08,14,02,23,18.30
2010,08,14,02,24,18.20
2010,08,14,02,25,18.20
2010,08,14,02,26,18.20
2010,08,14,02,27,18.20
2010,08,14,02,28,18.20
2010,08,14,02,29,18.10
2010,08,14,02,30,18.10
2010,08,14,02,31,18.10
2010,08,14,02,32,18.10
2010,08,14,02,33,18.10
2010,08,14,02,34,18.10
2010,08,14,02,35,18.10
2010,08,14,02,36,18.20
2010,08,14,02,37,18.20
2010,08,14,02,38,18.30
2010,08,14,02,39,18.30
2010,08,14,02,40,18.30
2010,08,14,02,41,18.30
2010,08,14,02,42,18.30
2010,08,14,02,43,18.20
2010,08,14,02,44,18.20
2010,08,14,02,45,18.10
2010,08,14,02,46,18.00
2010,08,14,02,47,17.90
2010,08,14,02,48,17.90
2010,08,14,02,49,17.80
2010,08,14,02,50,17.70
2010,08,14,02,51,17.70
2010,08,14,02,52,17.60
2010,08,14,02,53,17.60
2010,08,14,02,54,17.50
2010,08,14,02,55,17.50
2010,08,14,02,56,17.50
2010,08,14,02,57,17.60
2010,08,14,02,58,17.60
2010,08,14,02,59,17.60
2010,08,14,03,00,17.50
2010,08,14,03,01,17.50
2010,08,14,03,02,17.50
2010,08,14,03,03,17.50
2010,08,14,03,04,17.50
2010,08,14,03,05,17.50
2010,08,14,03,06,17.50
2010,08,14,03,07,17.40
2010,08,14,03,08,17.40
2010,08,14,03,09,17.50
2010,08,14,03,10,17.60
2010,08,14,03,11,17.70
2010,08,14,03,12,17.80
2010,08,14,03,13,17.90
2010,08,14,03,14,18.00
2010,08,14,03,15,18.10
2010,08,14,03,16,18.10
2010,08,14,03,17,18.10
2010,08,14,03,18,18.00
2010,08,14,03,19,17.90
2010,08,14,03,20,17.80
2010,08,14,03,21,17.70
2010,08,14,03,22,17.50
2010,08,14,03,23,17.40
2010,08,14,03,24,17.30
2010,08,14,03,25,17.30
2010,08,14,03,26,17.30
2010,08,14,03,27,17.30
2010,08,14,03,28,17.20
2010,08,14,03,29,17.20
2010,08,14,03,30,17.10
2010,08,14,03,31,17.10
2010,08,14,03,32,17.00
2010,08,14,03,33,16.90
2010,08,14,03,34,16.80
2010,08,14,03,35,16.70
2010,08,14,03,36,16.50
2010,08,14,03,37,16.30
2010,08,14,03,38,16.20
2010,08,14,03,39,16.10
2010,08,14,03,40,16.10
2010,08,14,03,41,16.00
2010,08,14,03,42,15.90
2010,08,14,03,43,15.80
2010,08,14,03,44,15.80
2010,08,14,03,45,15.80
2010,08,14,03,46,15.80
2010,08,14,03,47,15.70
2010,08,14,03,48,15.70
2010,08,14,03,49,15.70
2010,08,14,03,50,15.60
2010,08,14,03,51,15.60
2010,08,14,03,52,15.60
2010,08,14,03,53,15.60
2010,08,14,03,54,15.60
2010,08,14,03,55,15.60
2010,08,14,03,56,15.60
2010,08,14,03,57,15.50
2010,08,14,03,58,15.50
2010,08,14,03,59,15.50
2010,08,14,04,00,15.50
2010,08,14,04,01,15.50
2010,08,14,04,02,15.50
2010,08,14,04,03,15.50
2010,08,14,04,04,15.40
2010,08,14,04,05,15.40
2010,08,14,04,06,15.40
2010,08,14,04,07,15.40
2010,08,14,04,08,15.40
2010,08,14,04,09,15.40
2010,08,14,04,10,15.40
2010,08,14,04,11,15.40
2010,08,14,04,12,15.50
2010,08,14,04,13,15.50
2010,08,14,04,14,15.50
2010,08,14,04,15,15.50
2010,08,14,04,16,15.40
2010,08,14,04,17,15.40
2010,08,14,04,18,15.40
2010,08,14,04,19,15.50
2010,08,14,04,20,15.50
2010,08,14,04,21,15.50
2010,08,14,04,22,15.50
2010,08,14,04,23,15.50
2010,08,14,04,24,15.50
2010,08,14,04,25,15.50
2010,08,14,04,26,15.50
2010,08,14,04,27,15.50
2010,08,14,04,28,15.50
2010,08,14,04,29,15.50
2010,08,14,04,30,15.50
2010,08,14,04,31,15.50
2010,08,14,04,32,15.50
2010,08,14,04,33,15.50
2010,08,14,04,34,15.50
2010,08,14,04,35,15.50
2010,08,14,04,36,15.40
2010,08,14,04,37,15.40
2010,08,14,04,38,15.30
2010,08,14,04,39,15.30
2010,08,14,04,40,15.30
2010,08,14,04,41,15.30
2010,08,14,04,42,15.30
2010,08,14,04,43,15.30
2010,08,14,04,44,15.30
2010,08,14,04,45,15.30
2010,08,14,04,46,15.30
2010,08,14,04,47,15.30
2010,08,14,04,48,15.30
2010,08,14,04,49,15.30
2010,08,14,04,50,15.30
2010,08,14,04,51,15.20
2010,08,14,04,52,15.20
2010,08,14,04,53,15.20
2010,08,14,04,54,15.30
2010,08,14,04,55,15.30
2010,08,14,04,56,15.30
2010,08,14,04,57,15.30
2010,08,14,04,58,15.30
2010,08,14,04,59,15.30
2010,08,14,05,00,15.30
2010,08,14,05,01,15.30
2010,08,14,05,02,15.50
2010,08,14,05,03,15.70
2010,08,14,05,04,15.80
2010,08,14,05,05,16.10
2010,08,14,05,06,16.30
2010,08,14,05,07,16.50
2010,08,14,05,08,16.70
2010,08,14,05,09,16.80
2010,08,14,05,10,16.90
2010,08,14,05,11,17.00
2010,08,14,05,12,17.10
2010,08,14,05,13,17.10
2010,08,14,05,14,17.20
2010,08,14,05,15,17.30
2010,08,14,05,16,17.50
2010,08,14,05,17,17.50
2010,08,14,05,18,17.60
2010,08,14,05,19,17.80
2010,08,14,05,20,17.90
2010,08,14,05,21,17.80
2010,08,14,05,22,17.60
2010,08,14,05,23,17.50
2010,08,14,05,24,17.30
2010,08,14,05,25,17.20
2010,08,14,05,26,17.00
2010,08,14,05,27,17.00
2010,08,14,05,28,16.90
2010,08,14,05,29,16.90
2010,08,14,05,30,16.90
2010,08,14,05,31,17.00
2010,08,14,05,32,17.00
2010,08,14,05,33,17.00
2010,08,14,05,34,17.00
2010,08,14,05,35,17.00
2010,08,14,05,36,17.00
2010,08,14,05,37,17.30
2010,08,14,05,38,17.60
2010,08,14,05,39,17.80
2010,08,14,05,40,18.10
2010,08,14,05,41,18.30
2010,08,14,05,42,18.50
2010,08,14,05,43,18.60
2010,08,14,05,44,18.80
2010,08,14,05,45,19.00
2010,08,14,05,46,19.10
2010,08,14,05,47,19.30
2010,08,14,05,48,19.40
2010,08,14,05,49,19.50
2010,08,14,05,50,19.70
2010,08,14,05,51,19.80
2010,08,14,05,52,19.90
2010,08,14,05,53,19.90
2010,08,14,05,54,20.00
2010,08,14,05,55,20.10
2010,08,14,05,56,20.10
2010,08,14,05,57,20.20
2010,08,14,05,58,20.20
2010,08,14,05,59,20.20
2010,08,14,06,00,20.10
2010,08,14,06,01,20.00
2010,08,14,06,02,19.80
2010,08,14,06,03,19.50
2010,08,14,06,04,19.10
2010,08,14,06,05,18.70
2010,08,14,06,06,18.30
2010,08,14,06,07,17.80
2010,08,14,06,08,17.50
2010,08,14,06,09,17.20
2010,08,14,06,10,17.00
2010,08,14,06,11,16.90
2010,08,14,06,12,16.80
2010,08,14,06,13,16.80
2010,08,14,06,14,16.80
2010,08,14,06,15,16.90
2010,08,14,06,16,17.00
2010,08,14,06,17,17.10
2010,08,14,06,18,17.10
2010,08,14,06,19,17.20
2010,08,14,06,20,17.30
2010,08,14,06,21,17.40
2010,08,14,06,22,17.50
2010,08,14,06,23,17.50
2010,08,14,06,24,17.60
2010,08,14,06,25,17.70
2010,08,14,06,26,17.60
2010,08,14,06,27,17.50
2010,08,14,06,28,17.20
2010,08,14,06,29,16.90
2010,08,14,06,30,16.60
2010,08,14,06,31,16.40
2010,08,14,06,32,16.30
2010,08,14,06,33,16.20
2010,08,14,06,34,16.10
2010,08,14,06,35,16.10
2010,08,14,06,36,16.00
2010,08,14,06,37,15.90
2010,08,14,06,38,15.90
2010,08,14,06,39,15.80
2010,08,14,06,40,15.60
2010,08,14,06,41,15.50
2010,08,14,06,42,15.40
2010,08,14,06,43,15.30
2010,08,14,06,44,15.20
2010,08,14,06,45,15.10
2010,08,14,06,46,15.10
2010,08,14,06,47,15.00
2010,08,14,06,48,15.00
2010,08,14,06,49,15.00
2010,08,14,06,50,14.90
2010,08,14,06,51,14.90
2010,08,14,06,52,14.90
2010,08,14,06,53,14.90
2010,08,14,06,54,14.90
2010,08,14,06,55,14.80
2010,08,14,06,56,14.80
2010,08,14,06,57,14.80
2010,08,14,06,58,14.80
2010,08,14,06,59,14.80
2010,08,14,07,00,14.80
2010,08,14,07,01,14.80
2010,08,14,07,02,14.80
2010,08,14,07,03,14.80
2010,08,14,07,04,14.80
2010,08,14,07,05,14.80
2010,08,14,07,06,14.90
2010,08,14,07,07,14.90
2010,08,14,07,08,15.00
2010,08,14,07,09,15.00
2010,08,14,07,10,15.10
2010,08,14,07,11,15.10
2010,08,14,07,12,15.20
2010,08,14,07,13,15.20
2010,08,14,07,14,15.30
2010,08,14,07,15,15.30
2010,08,14,07,16,15.30
2010,08,14,07,17,15.40
2010,08,14,07,18,15.50
2010,08,14,07,19,15.60
2010,08,14,07,20,15.70
2010,08,14,07,21,15.80
2010,08,14,07,22,15.80
2010,08,14,07,23,15.80
2010,08,14,07,24,15.80
2010,08,14,07,25,15.80
2010,08,14,07,26,15.80
2010,08,14,07,27,15.80
2010,08,14,07,28,15.80
2010,08,14,07,29,15.80
2010,08,14,07,30,15.80
2010,08,14,07,31,15.80
2010,08,14,07,32,15.80
2010,08,14,07,33,15.80
2010,08,14,07,34,15.80
2010,08,14,07,35,15.90
2010,08,14,07,36,16.10
2010,08,14,07,37,16.30
2010,08,14,07,38,16.40
2010,08,14,07,39,16.60
2010,08,14,07,40,16.70
2010,08,14,07,41,16.70
2010,08,14,07,42,16.80
2010,08,14,07,43,16.90
2010,08,14,07,44,16.90
2010,08,14,07,45,17.00
2010,08,14,07,46,17.00
2010,08,14,07,47,17.10
2010,08,14,07,48,17.20
2010,08,14,07,49,17.30
2010,08,14,07,50,17.30
2010,08,14,07,51,17.30
2010,08,14,07,52,17.50
2010,08,14,07,53,17.70
2010,08,14,07,54,17.70
2010,08,14,07,55,17.80
2010,08,14,07,56,17.90
2010,08,14,07,57,17.90
2010,08,14,07,58,17.90
2010,08,14,07,59,18.00
2010,08,14,08,00,18.10
2010,08,14,08,01,18.10
2010,08,14,08,02,18.00
2010,08,14,08,03,17.90
2010,08,14,08,04,17.90
2010,08,14,08,05,17.90
2010,08,14,08,06,17.90
2010,08,14,08,07,17.80
2010,08,14,08,08,17.80
2010,08,14,08,09,17.70
2010,08,14,08,10,17.70
2010,08,14,08,11,17.70
2010,08,14,08,12,17.70
2010,08,14,08,13,17.70
2010,08,14,08,14,17.70
2010,08,14,08,15,17.70
2010,08,14,08,16,17.80
2010,08,14,08,17,17.90
2010,08,14,08,18,17.90
2010,08,14,08,19,18.10
2010,08,14,08,20,18.20
2010,08,14,08,21,18.50
2010,08,14,08,22,18.80
2010,08,14,08,23,19.00
2010,08,14,08,24,19.20
2010,08,14,08,25,19.40
2010,08,14,08,26,19.50
2010,08,14,08,27,19.50
2010,08,14,08,28,19.60
2010,08,14,08,29,19.60
2010,08,14,08,30,19.50
2010,08,14,08,31,19.50
2010,08,14,08,32,19.40
2010,08,14,08,33,19.30
2010,08,14,08,34,19.10
2010,08,14,08,35,19.10
2010,08,14,08,36,19.10
2010,08,14,08,37,19.10
2010,08,14,08,38,19.10
2010,08,14,08,39,19.10
2010,08,14,08,40,19.10
2010,08,14,08,41,19.30
2010,08,14,08,42,19.50
2010,08,14,08,43,19.90
2010,08,14,08,44,20.50
2010,08,14,08,45,21.00
2010,08,14,08,46,21.50
2010,08,14,08,47,22.00
2010,08,14,08,48,22.50
2010,08,14,08,49,22.90
2010,08,14,08,50,23.20
2010,08,14,08,51,23.50
2010,08,14,08,52,23.80
2010,08,14,08,53,24.00
2010,08,14,08,54,24.10
2010,08,14,08,55,24.30
2010,08,14,08,56,24.40
2010,08,14,08,57,24.50
2010,08,14,08,58,24.50
2010,08,14,08,59,24.60
2010,08,14,09,00,24.70
2010,08,14,09,01,24.80
2010,08,14,09,02,24.80
2010,08,14,09,03,24.90
2010,08,14,09,04,24.90
2010,08,14,09,05,24.90
2010,08,14,09,06,24.90
2010,08,14,09,07,24.90
2010,08,14,09,08,24.90
2010,08,14,09,09,24.80
2010,08,14,09,10,24.80
2010,08,14,09,11,24.80
2010,08,14,09,12,24.80
2010,08,14,09,13,24.80
2010,08,14,09,14,24.80
2010,08,14,09,15,24.80
2010,08,14,09,16,24.80
2010,08,14,09,17,24.80
2010,08,14,09,18,24.90
2010,08,14,09,19,24.90
2010,08,14,09,20,24.90
2010,08,14,09,21,24.90
2010,08,14,09,22,25.00
2010,08,14,09,23,25.00
2010,08,14,09,24,25.00
2010,08,14,09,25,25.00
2010,08,14,09,26,25.10
2010,08,14,09,27,25.10
2010,08,14,09,28,25.10
2010,08,14,09,29,25.10
2010,08,14,09,30,25.10
2010,08,14,09,31,25.10
2010,08,14,09,32,25.10
2010,08,14,09,33,25.10
2010,08,14,09,34,25.10
2010,08,14,09,35,25.00
2010,08,14,09,36,25.00
2010,08,14,09,37,25.00
2010,08,14,09,38,25.00
2010,08,14,09,39,25.00
2010,08,14,09,40,24.90
2010,08,14,09,41,24.90
2010,08,14,09,42,25.00
2010,08,14,09,43,25.00
2010,08,14,09,44,25.10
2010,08,14,09,45,25.20
2010,08,14,09,46,25.20
2010,08,14,09,47,25.30
2010,08,14,09,48,25.40
2010,08,14,09,49,25.40
2010,08,14,09,50,25.30
2010,08,14,09,51,25.30
2010,08,14,09,52,25.30
2010,08,14,09,53,25.30
2010,08,14,09,54,25.30
2010,08,14,09,55,25.40
2010,08,14,09,56,25.40
2010,08,14,09,57,25.40
2010,08,14,09,58,25.50
2010,08,14,09,59,25.50
2010,08,14,10,00,25.50
2010,08,14,10,01,25.60
2010,08,14,10,02,25.70
2010,08,14,10,03,25.80
2010,08,14,10,04,25.90
2010,08,14,10,05,25.90
2010,08,14,10,06,25.80
2010,08,14,10,07,25.80
2010,08,14,10,08,25.80
2010,08,14,10,09,25.80
2010,08,14,10,10,25.80
2010,08,14,10,11,25.80
2010,08,14,10,12,25.90
2010,08,14,10,13,25.90
2010,08,14,10,14,25.90
2010,08,14,10,15,25.90
2010,08,14,10,16,25.90
2010,08,14,10,17,26.00
2010,08,14,10,18,26.00
2010,08,14,10,19,26.10
2010,08,14,10,20,26.10
2010,08,14,10,21,26.20
2010,08,14,10,22,26.10
2010,08,14,10,23,26.10
2010,08,14,10,24,26.10
2010,08,14,10,25,26.20
2010,08,14,10,26,26.20
2010,08,14,10,27,26.30
2010,08,14,10,28,26.30
2010,08,14,10,29,26.40
2010,08,14,10,30,26.40
2010,08,14,10,31,26.40
2010,08,14,10,32,26.30
2010,08,14,10,33,26.20
2010,08,14,10,34,26.10
2010,08,14,10,35,26.20
2010,08,14,10,36,26.30
2010,08,14,10,37,26.30
2010,08,14,10,38,26.30
2010,08,14,10,39,26.30
2010,08,14,10,40,26.30
2010,08,14,10,41,26.30
2010,08,14,10,42,26.40
2010,08,14,10,43,26.40
2010,08,14,10,44,26.50
2010,08,14,10,45,26.60
2010,08,14,10,46,26.60
2010,08,14,10,47,26.60
2010,08,14,10,48,26.50
2010,08,14,10,49,26.40
2010,08,14,10,50,26.40
2010,08,14,10,51,26.50
2010,08,14,10,52,26.60
2010,08,14,10,53,26.60
2010,08,14,10,54,26.70
2010,08,14,10,55,26.80
2010,08,14,10,56,26.90
2010,08,14,10,57,27.00
2010,08,14,10,58,27.10
2010,08,14,10,59,27.20
2010,08,14,11,00,27.20
2010,08,14,11,01,27.20
2010,08,14,11,02,27.10
2010,08,14,11,03,27.00
2010,08,14,11,04,26.90
2010,08,14,11,05,26.90
2010,08,14,11,06,26.90
2010,08,14,11,07,26.80
2010,08,14,11,08,26.80
2010,08,14,11,09,26.80
2010,08,14,11,10,26.80
2010,08,14,11,11,26.80
2010,08,14,11,12,26.80
2010,08,14,11,13,26.70
2010,08,14,11,14,26.80
2010,08,14,11,15,26.80
2010,08,14,11,16,26.90
2010,08,14,11,17,27.10
2010,08,14,11,18,27.20
2010,08,14,11,19,27.30
2010,08,14,11,20,27.30
2010,08,14,11,21,27.30
2010,08,14,11,22,27.30
2010,08,14,11,23,27.40
2010,08,14,11,24,27.40
2010,08,14,11,25,27.40
2010,08,14,11,26,27.40
2010,08,14,11,27,27.40
2010,08,14,11,28,27.40
2010,08,14,11,29,27.40
2010,08,14,11,30,27.50
2010,08,14,11,31,27.50
2010,08,14,11,32,27.40
2010,08,14,11,33,27.30
2010,08,14,11,34,27.40
2010,08,14,11,35,27.50
2010,08,14,11,36,27.60
2010,08,14,11,37,27.60
2010,08,14,11,38,27.60
2010,08,14,11,39,27.60
2010,08,14,11,40,27.70
2010,08,14,11,41,27.70
2010,08,14,11,42,27.70
2010,08,14,11,43,27.70
2010,08,14,11,44,27.70
2010,08,14,11,45,27.70
2010,08,14,11,46,27.80
2010,08,14,11,47,27.80
2010,08,14,11,48,27.80
2010,08,14,11,49,27.70
2010,08,14,11,50,27.70
2010,08,14,11,51,27.70
2010,08,14,11,52,27.70
2010,08,14,11,53,27.80
2010,08,14,11,54,28.00
2010,08,14,11,55,28.10
2010,08,14,11,56,28.10
2010,08,14,11,57,28.10
2010,08,14,11,58,28.10
2010,08,14,11,59,28.20
2010,08,14,12,00,28.20
2010,08,14,12,01,28.20
2010,08,14,12,02,28.20
2010,08,14,12,03,28.20
2010,08,14,12,04,28.30
2010,08,14,12,05,28.30
2010,08,14,12,06,28.30
2010,08,14,12,07,28.30
2010,08,14,12,08,28.20
2010,08,14,12,09,28.20
2010,08,14,12,10,28.20
2010,08,14,12,11,28.30
2010,08,14,12,12,28.30
2010,08,14,12,13,28.40
2010,08,14,12,14,28.40
2010,08,14,12,15,28.40
2010,08,14,12,16,28.60
2010,08,14,12,17,28.50
2010,08,14,12,18,28.40
2010,08,14,12,19,28.40
2010,08,14,12,20,28.40
2010,08,14,12,21,28.30
2010,08,14,12,22,28.20
2010,08,14,12,23,28.30
2010,08,14,12,24,28.40
2010,08,14,12,25,28.40
2010,08,14,12,26,28.40
2010,08,14,12,27,28.50
2010,08,14,12,28,28.60
2010,08,14,12,29,28.70
2010,08,14,12,30,28.80
2010,08,14,12,31,28.80
2010,08,14,12,32,28.80
2010,08,14,12,33,28.90
2010,08,14,12,34,28.90
2010,08,14,12,35,28.90
2010,08,14,12,36,28.90
2010,08,14,12,37,28.90
2010,08,14,12,38,28.90
2010,08,14,12,39,28.80
2010,08,14,12,40,28.80
2010,08,14,12,41,28.80
2010,08,14,12,42,28.80
2010,08,14,12,43,28.80
2010,08,14,12,44,28.80
2010,08,14,12,45,28.80
2010,08,14,12,46,28.90
2010,08,14,12,47,28.90
2010,08,14,12,48,28.90
2010,08,14,12,49,28.90
2010,08,14,12,50,29.00
2010,08,14,12,51,29.10
2010,08,14,12,52,29.20
2010,08,14,12,53,29.30
2010,08,14,12,54,29.20
2010,08,14,12,55,29.20
2010,08,14,12,56,29.10
2010,08,14,12,57,29.20
2010,08,14,12,58,29.30
2010,08,14,12,59,29.50
2010,08,14,13,00,29.50
2010,08,14,13,01,29.40
2010,08,14,13,02,29.40
2010,08,14,13,03,29.30
2010,08,14,13,04,29.30
2010,08,14,13,05,29.40
2010,08,14,13,06,29.40
2010,08,14,13,07,29.40
2010,08,14,13,08,29.50
2010,08,14,13,09,29.50
2010,08,14,13,10,29.50
2010,08,14,13,11,29.40
2010,08,14,13,12,29.50
2010,08,14,13,13,29.50
2010,08,14,13,14,29.50
2010,08,14,13,15,29.50
2010,08,14,13,16,29.50
2010,08,14,13,17,29.60
2010,08,14,13,18,29.50
2010,08,14,13,19,29.50
2010,08,14,13,20,29.30
2010,08,14,13,21,29.30
2010,08,14,13,22,29.30
2010,08,14,13,23,29.30
2010,08,14,13,24,29.40
2010,08,14,13,25,29.40
2010,08,14,13,26,29.40
2010,08,14,13,27,29.40
2010,08,14,13,28,29.50
2010,08,14,13,29,29.60
2010,08,14,13,30,29.60
2010,08,14,13,31,29.70
2010,08,14,13,32,29.80
2010,08,14,13,33,29.90
2010,08,14,13,34,29.90
2010,08,14,13,35,30.00
2010,08,14,13,36,30.10
2010,08,14,13,37,30.10
2010,08,14,13,38,30.10
2010,08,14,13,39,30.20
2010,08,14,13,40,30.20
2010,08,14,13,41,30.20
2010,08,14,13,42,30.20
2010,08,14,13,43,30.20
2010,08,14,13,44,30.30
2010,08,14,13,45,30.40
2010,08,14,13,46,30.60
2010,08,14,13,47,30.60
2010,08,14,13,48,30.60
2010,08,14,13,49,30.70
2010,08,14,13,50,30.70
2010,08,14,13,51,30.70
2010,08,14,13,52,30.70
2010,08,14,13,53,30.70
2010,08,14,13,54,30.60
2010,08,14,13,55,30.60
2010,08,14,13,56,30.60
2010,08,14,13,57,30.60
2010,08,14,13,58,30.60
2010,08,14,13,59,30.60
2010,08,14,14,00,30.60
2010,08,14,14,01,30.60
2010,08,14,14,02,30.60
2010,08,14,14,03,30.70
2010,08,14,14,04,30.70
2010,08,14,14,05,30.70
2010,08,14,14,06,30.70
2010,08,14,14,07,30.60
2010,08,14,14,08,30.70
2010,08,14,14,09,30.70
2010,08,14,14,10,30.70
2010,08,14,14,11,30.80
2010,08,14,14,12,30.80
2010,08,14,14,13,30.80
2010,08,14,14,14,30.80
2010,08,14,14,15,30.90
2010,08,14,14,16,30.90
2010,08,14,14,17,30.90
2010,08,14,14,18,30.90
2010,08,14,14,19,30.90
2010,08,14,14,20,30.90
2010,08,14,14,21,30.90
2010,08,14,14,22,30.80
2010,08,14,14,23,30.80
2010,08,14,14,24,30.80
2010,08,14,14,25,30.80
2010,08,14,14,26,30.80
2010,08,14,14,27,30.90
2010,08,14,14,28,30.90
2010,08,14,14,29,30.90
2010,08,14,14,30,30.90
2010,08,14,14,31,31.00
2010,08,14,14,32,31.10
2010,08,14,14,33,31.20
2010,08,14,14,34,31.20
2010,08,14,14,35,31.30
2010,08,14,14,36,31.30
2010,08,14,14,37,31.30
2010,08,14,14,38,31.30
2010,08,14,14,39,31.30
2010,08,14,14,40,31.30
2010,08,14,14,41,31.30
2010,08,14,14,42,31.50
2010,08,14,14,43,31.60
2010,08,14,14,44,31.60
2010,08,14,14,45,31.70
2010,08,14,14,46,31.80
2010,08,14,14,47,31.80
2010,08,14,14,48,31.70
2010,08,14,14,49,31.60
2010,08,14,14,50,31.60
2010,08,14,14,51,31.60
2010,08,14,14,52,31.60
2010,08,14,14,53,31.60
2010,08,14,14,54,31.70
2010,08,14,14,55,31.70
2010,08,14,14,56,31.70
2010,08,14,14,57,31.70
2010,08,14,14,58,31.80
2010,08,14,14,59,31.90
2010,08,14,15,00,32.00
2010,08,14,15,01,32.10
2010,08,14,15,02,32.10
2010,08,14,15,03,32.10
2010,08,14,15,04,32.10
2010,08,14,15,05,32.00
2010,08,14,15,06,31.90
2010,08,14,15,07,31.90
2010,08,14,15,08,31.90
2010,08,14,15,09,31.90
2010,08,14,15,10,32.00
2010,08,14,15,11,32.10
2010,08,14,15,12,32.20
2010,08,14,15,13,32.20
2010,08,14,15,14,32.30
2010,08,14,15,15,32.30
2010,08,14,15,16,32.40
2010,08,14,15,17,32.40
2010,08,14,15,18,32.50
2010,08,14,15,19,32.50
2010,08,14,15,20,32.50
2010,08,14,15,21,32.50
2010,08,14,15,22,32.50
2010,08,14,15,23,32.40
2010,08,14,15,24,32.40
2010,08,14,15,25,32.40
2010,08,14,15,26,32.40
2010,08,14,15,27,32.50
2010,08,14,15,28,32.40
2010,08,14,15,29,32.40
2010,08,14,15,30,32.40
2010,08,14,15,31,32.40
2010,08,14,15,32,32.40
2010,08,14,15,33,32.40
2010,08,14,15,34,32.30
2010,08,14,15,35,32.20
2010,08,14,15,36,32.20
2010,08,14,15,37,32.30
2010,08,14,15,38,32.30
2010,08,14,15,39,32.30
2010,08,14,15,40,32.30
2010,08,14,15,41,32.30
2010,08,14,15,42,32.30
2010,08,14,15,43,32.30
2010,08,14,15,44,32.20
2010,08,14,15,45,32.30
2010,08,14,15,46,32.40
2010,08,14,15,47,32.40
2010,08,14,15,48,32.50
2010,08,14,15,49,32.60
2010,08,14,15,50,32.60
2010,08,14,15,51,32.60
2010,08,14,15,52,32.60
2010,08,14,15,53,32.60
2010,08,14,15,54,32.60
2010,08,14,15,55,32.70
2010,08,14,15,56,32.80
2010,08,14,15,57,32.80
2010,08,14,15,58,32.80
2010,08,14,15,59,32.80
2010,08,14,16,00,32.60
2010,08,14,16,01,32.50
2010,08,14,16,02,32.40
2010,08,14,16,03,32.30
2010,08,14,16,04,32.40
2010,08,14,16,05,32.40
2010,08,14,16,06,32.50
2010,08,14,16,07,32.50
2010,08,14,16,08,32.70
2010,08,14,16,09,32.70
2010,08,14,16,10,32.60
2010,08,14,16,11,32.60
2010,08,14,16,12,32.60
2010,08,14,16,13,32.60
2010,08,14,16,14,32.60
2010,08,14,16,15,32.50
2010,08,14,16,16,32.50
2010,08,14,16,17,32.40
2010,08,14,16,18,32.40
2010,08,14,16,19,32.30
2010,08,14,16,20,32.30
2010,08,14,16,21,32.20
2010,08,14,16,22,32.20
2010,08,14,16,23,32.20
2010,08,14,16,24,32.30
2010,08,14,16,25,32.40
2010,08,14,16,26,32.40
2010,08,14,16,27,32.40
2010,08,14,16,28,32.50
2010,08,14,16,29,32.50
2010,08,14,16,30,32.60
2010,08,14,16,31,32.70
2010,08,14,16,32,32.80
2010,08,14,16,33,32.80
2010,08,14,16,34,32.80
2010,08,14,16,35,32.80
2010,08,14,16,36,32.80
2010,08,14,16,37,32.80
2010,08,14,16,38,32.90
2010,08,14,16,39,33.00
2010,08,14,16,40,33.00
2010,08,14,16,41,33.00
2010,08,14,16,42,33.00
2010,08,14,16,43,32.90
2010,08,14,16,44,32.90
2010,08,14,16,45,32.90
2010,08,14,16,46,32.90
2010,08,14,16,47,33.00
2010,08,14,16,48,33.00
2010,08,14,16,49,33.00
2010,08,14,16,50,33.00
2010,08,14,16,51,33.00
2010,08,14,16,52,32.90
2010,08,14,16,53,32.90
2010,08,14,16,54,32.90
2010,08,14,16,55,33.00
2010,08,14,16,56,33.00
2010,08,14,16,57,33.10
2010,08,14,16,58,33.20
2010,08,14,16,59,33.20
2010,08,14,17,00,33.10
2010,08,14,17,01,33.10
2010,08,14,17,02,33.00
2010,08,14,17,03,33.00
2010,08,14,17,04,33.00
2010,08,14,17,05,33.00
2010,08,14,17,06,33.00
2010,08,14,17,07,33.10
2010,08,14,17,08,33.00
2010,08,14,17,09,33.00
2010,08,14,17,10,33.00
2010,08,14,17,11,32.90
2010,08,14,17,12,32.70
2010,08,14,17,13,32.50
2010,08,14,17,14,32.40
2010,08,14,17,15,32.30
2010,08,14,17,16,32.40
2010,08,14,17,17,32.40
2010,08,14,17,18,32.50
2010,08,14,17,19,32.50